Content
SEND FEEDBACK

Daily
Averages
Monthly
Summary
United States of America

CAPUTA, SOUTH DAKOTA


Home > North America > United States > South Dakota
Elevation: 3149 feet     Latitude: 44 03N     Longitude: 103 04W

WEATHER
 
SELECT A DAY
Number of Records: 200,530;   Date Range: 1/1/95 - 9/18/14
 
SHARE

PRINT THIS DATA

[ ← Previous Day ]
WEATHER ALMANAC - JULY 21, 2013
[ Next Day → ]
[ °C ]   °F
Weather ElementAverageHighLow
Temperature74.8 °F89.1 °F (4:52 pm)62.1 °F (3:52 am)
Dewpoint59.6 °F64.4 °F (12:29 am)52 °F (10:52 pm)
Humidity63.4 %97 % (12:52 am)35 % (5:52 pm)
Barometer29.79 in29.99 in (12:29 am)29.68 in (5:52 pm)
Wind Speed10.8 mph21.9 mph (7:52 am)
Wind Gust31.1 mph (7:52 am)
Weather ElementAverage
Visibility9.8 mi
Wind DirectionSSE (165.4 °)

Weather ElementTotal
Precipitation0.11 in
Cooling Degree Days10.6 (Base 65)
Growing Degree Days25.6 (Base 50)
Averaged from 26 records on July 21, 2013
WEATHER CONDITIONS BREAKOUT
WIND DIRECTION BREAKOUT
WEATHER BY HOUR - JULY 21, 2013
[ °C ]   °F
Local TimeTemperatureDewpointHumidityBarometerVisibilityWind DirectionWind SpeedGust SpeedPrecipitationEventsConditions
12:29 AM66.2 °F64.4 °F94 %29.99 in6.0 miNW (310°)13.8 mph0.00 inRain-ThunderstormLight Thunderstorms and Rain
12:52 AM64.9 °F64.0 °F97 %29.86 in10.0 miSE (130°)3.5 mph0.10 inRain-ThunderstormLight Thunderstorms and Rain
1:52 AM64.9 °F62.1 °F90 %29.84 in10.0 miNE (40°)8.1 mph0.01 inThunderstormPartly Cloudy
1:59 AM64.4 °F62.6 °F94 %29.91 in10.0 miNE (40°)3.5 mphClear
2:52 AM63.0 °F61.0 °F93 %29.84 in10.0 miCalmClear
3:52 AM62.1 °F60.1 °F93 %29.84 in10.0 miCalmClear
4:52 AM63.0 °F59.0 °F87 %29.84 in10.0 miSSE (150°)10.4 mphClear
5:52 AM63.0 °F60.1 °F90 %29.83 in10.0 miSouth (170°)9.2 mphClear
6:52 AM64.0 °F60.1 °F87 %29.83 in10.0 miSouth (180°)10.4 mphClear
7:52 AM69.1 °F57.9 °F68 %29.83 in10.0 miSSW (210°)21.9 mph31.1 mphClear
8:52 AM73.0 °F57.9 °F59 %29.83 in10.0 miSSW (210°)19.6 mph31.1 mphClear
9:52 AM77.0 °F59.0 °F54 %29.80 in10.0 miSSW (210°)20.7 mph31.1 mphClear
10:52 AM80.1 °F59.0 °F48 %29.79 in10.0 miSSW (200°)17.3 mph27.6 mphClear
11:52 AM82.9 °F59.0 °F44 %29.77 in10.0 miSSW (210°)21.9 mph27.6 mphClear
12:52 PM86.0 °F61.0 °F43 %29.75 in10.0 miSouth (190°)17.3 mph27.6 mphClear
1:52 PM88.0 °F60.1 °F39 %29.73 in10.0 miSouth (190°)17.3 mph24.2 mphClear
2:52 PM84.9 °F57.9 °F40 %29.73 in10.0 miSouth (190°)15.0 mphClear
3:52 PM84.9 °F57.0 °F38 %29.71 in10.0 miSouth (190°)10.4 mphClear
4:52 PM89.1 °F59.0 °F36 %29.70 in10.0 miSouth (190°)9.2 mphClear
5:52 PM89.1 °F57.9 °F35 %29.68 in10.0 miSSW (210°)8.1 mphClear
6:52 PM87.1 °F60.1 °F40 %29.69 in10.0 miSSW (200°)4.6 mphClear
7:52 PM82.9 °F60.1 °F46 %29.70 in10.0 miSSW (200°)4.6 mphClear
8:52 PM72.0 °F62.1 °F71 %29.73 in10.0 miCalmClear
9:52 PM72.0 °F61.0 °F68 %29.73 in10.0 miNW (310°)5.8 mphClear
10:52 PM77.0 °F52.0 °F42 %29.75 in10.0 miNNE (20°)13.8 mphPartly Cloudy
11:52 PM73.0 °F55.0 °F53 %29.78 in10.0 miNorth (350°)15.0 mphClear
Hourly data recorded from KRAP, located miles away from Caputa, South Dakota







STORIES FROM OUR PARTNERS